Other Public Products
Issued by NWS Grand Forks, ND

Home | Current Version | Previous Version | Graphics & Text | Print | Product List | Glossary On
Versions: 1 2 3 4 5 6 7 8 9 10 11 12 13 14 15 16 17 18 19 20 21 22 23 24 25 26 27 28 29 30 31 32 33 34 35 36 37 38 39 40 41 42 43 44 45 46 47 48 49 50
871
FPUS83 KFGF 201210
OPUFGF
PRAIRIE TO PINES WEATHER ROUNDUP
NATIONAL WEATHER SERVICE EASTERN NORTH DAKOTA/GRAND FORKS ND
600 AM CST FRI JAN 20 2017

 **SATELLITE DATA USED TO AUGMENT SKY COVER AT AUTOMATED STATIONS**
 *****  WEATHER ACROSS EASTERN NORTH DAKOTA  *****

CITY           SKY/WX    TMP DP  RH WIND       PRES   REMARKS
GRAND FORKS    FOG       35  33  92 SE10      29.52S VSB 3/4
6HR MIN TEMP:  35; 6HR MAX TEMP:  35;

GRAND FORKS AF CLOUDY    34  32  93 SE9       29.50F FOG
GRAND CITY NWS NOT AVBL
BUXTON         NOT AVBL
DEVILS LAKE    CLOUDY    32  31  96 SE3       29.46F FOG
6HR MIN TEMP:  24; 6HR MAX TEMP:  32; 6HR PCP: TRACE;

FARGO          CLOUDY    50  36  58 SE9       29.52F
6HR MIN TEMP:  47; 6HR MAX TEMP:  50;

WAHPETON ARPT  CLOUDY    34  32  93 SE10      29.54S
$$

 *****  WEATHER ACROSS CENTRAL AND WESTERN NORTH DAKOTA  *****

CITY           SKY/WX    TMP DP  RH WIND       PRES   REMARKS
JAMESTOWN      FOG       33  33 100 SE7       29.44F VSB 1/2
6HR MIN TEMP:  33; 6HR MAX TEMP:  33;

BISMARCK       FOG       22  21  96 CALM      29.43S VSB 1/4
6HR MIN TEMP:  11; 6HR MAX TEMP:  23;

MINOT          FAIR      16  13  88 SE7       29.39S WCI   6
6HR MIN TEMP:  15; 6HR MAX TEMP:  24;

MINOT AFB      FOG       15  13  90 CALM      29.38S VSB 0
6HR MIN TEMP:  12; 6HR MAX TEMP:  18; 6HR PCP: TRACE;

GARRISON         N/A     10   7  87 CALM      29.41S
6HR MIN TEMP:   6; 6HR MAX TEMP:  14;

WILLISTON      FAIR      16  14  92 CALM      29.41R
6HR MIN TEMP:   8; 6HR MAX TEMP:  17;

DICKINSON      FAIR      20  17  88 W9        29.35F WCI   9
6HR MIN TEMP:  17; 6HR MAX TEMP:  21;

HETTINGER      FAIR      22  18  85 NW8       29.38S WCI  12
6HR MIN TEMP:  13; 6HR MAX TEMP:  23;

$$

 *****  OTHER OBSERVATIONS NORTHEAST NORTH DAKOTA  *****

CITY           SKY/WX    TMP DP  RH WIND       PRES   REMARKS
WALHALLA       NOT AVBL
LANGDON        NOT AVBL
CAVALIER         N/A     34  34 100 S8        29.50S FOG
GRAFTON        FOG       34  34 100 SE13      29.53S VSB 1/2 WCI  25
CANDO          NOT AVBL
FORT TOTTEN      N/A     32  32 100 S3        29.95S
ROLLA            N/A    N/A N/A N/A MISG        N/A
RUGBY          FOG       21  21 100 S8        29.43F VSB 3/4 WCI  12
 ***** THE ABOVE OBSERVATIONS ARE NON NWS ARE NOT QUALITY
        CONTROLLED AND MAY MIS-REPORT RAIN FOR SNOW...
$$

 *****  OTHER OBSERVATIONS SOUTHEAST NORTH DAKOTA *****

CITY           SKY/WX    TMP DP  RH WIND       PRES   REMARKS
COOPERSTOWN    FOG       34  34 100 SE9       29.48S VSB 1/2
VALLEY CITY    FOG       32  32 100 SE10      29.49S VSB 1/2 WCI  24
OAKES          NOT AVBL
GWINNER        CLOUDY    34  34 100 SE13      29.48F VSB 1   WCI  25
SHEYENNE NWR     N/A     34  34  99 SE12      29.95S
BUFFALO        NOT AVBL
WYNDMERE       NOT AVBL
 ***** THE ABOVE OBSERVATIONS ARE NON NWS ARE NOT QUALITY
       CONTROLLED AND MAY MIS-REPORT RAIN FOR SNOW...
$$

  *****  WEATHER ACROSS NORTHERN MINNESOTA  *****

CITY           SKY/WX    TMP DP  RH WIND       PRES   REMARKS
FLAG ISLAND    FOG       34  32  93 S6        29.57F VSB 1
WARROAD        CLOUDY    34  30  86 SE6       29.58S FOG
ROSEAU         CLOUDY    36  30  80 SE6       29.56F FOG
HALLOCK        FOG       36  34  93 S10       29.52F VSB 1
THF RVR FALLS  CLOUDY    34  34 100 SE9       29.55F
6HR MIN TEMP:  34; 6HR MAX TEMP:  35;

HALSTAD        NOT AVBL
FOSSTON        CLOUDY    34  34 100 E7        29.56S FOG
BAUDETTE       FOG       34  33  96 SE6       29.59S VSB 3/4
6HR MIN TEMP:  34; 6HR MAX TEMP:  37;

WASKISH        FOG       36  34  93 SE3       29.60S VSB 3/4
CROOKSTON      CLOUDY    34  34 100 SE10      29.54F FOG
$$
  *****  WEATHER ACROSS CENTRAL AND WEST MINNESOTA  *****

CITY           SKY/WX    TMP DP  RH WIND       PRES   REMARKS
BEMIDJI        FOG       33  33 100 SE8       29.58F VSB 3/4
PARK RAPIDS    FOG       34  31  88 SE7       29.58R VSB 1
6HR MIN TEMP:  33; 6HR MAX TEMP:  34;

WADENA         MIX PCPN  32  32 100 SE5       29.57F VSB 1
DETROIT LAKES  CLOUDY    34  34 100 SE10      29.57R FOG
MOORHEAD       CLOUDY    36  34  93 SE7       29.53F FOG
FERGUS FALLS   CLOUDY    36  36 100 SE8       29.59S FOG
ELBOW LAKE     FOG       33  33 100 SE8       29.56S VSB 1
6HR MIN TEMP:  33; 6HR MAX TEMP:  34;

MORRIS MN      FOG       34  34 100 SE13      29.55S VSB 3/4 WCI  25
STAPLES        RAIN      34  34 100 CALM      29.59S
WHEATON        CLOUDY    39  39 100 SE14      29.56S FOG
$$
  *****  WEATHER ELSEWHERE ACROSS MINNESOTA  *****

CITY           SKY/WX    TMP DP  RH WIND       PRES   REMARKS
DULUTH         CLOUDY    34  32  92 SE8       29.64R
6HR MIN TEMP:  33; 6HR MAX TEMP:  36; 6HR PCP: TRACE;

INTRNTL FALLS  CLOUDY    32  31  96 SE3       29.62S FOG
6HR MIN TEMP:  26; 6HR MAX TEMP:  38;

ELY            FOG       21  21 100 CALM      29.64S VSB 1/4
CLOQUET        MIX PCPN  34  30  86 E3        29.63R
BRAINERD       FOG       34  34 100 S5        29.60F VSB 1
6HR MIN TEMP:  33; 6HR MAX TEMP:  36; 6HR PCP: TRACE;

HIBBING        CLOUDY    28  28 100 CALM      29.62S FOG
6HR MIN TEMP:  19; 6HR MAX TEMP:  29;

ALEXANDRIA     MIX PCPN  33  33 100 SE8       29.57F FOG
6HR MIN TEMP:  33; 6HR MAX TEMP:  34; 6HR PCP:  0.01;

SAINT CLOUD    CLOUDY    34  34 100 SE6       29.60F FOG
6HR MIN TEMP:  34; 6HR MAX TEMP:  34; 6HR PCP:  0.06;

MINNEAPOLIS    CLOUDY    35  33  92 SE7       29.63S FOG
6HR MIN TEMP:  35; 6HR MAX TEMP:  36; 6HR PCP:  0.09;

$$

  *****  WEATHER ACROSS SOUTH DAKOTA  *****

CITY           SKY/WX    TMP DP  RH WIND       PRES   REMARKS
SIOUX FALLS    CLOUDY    37  37 100 SE9       29.51S FOG
6HR MIN TEMP:  37; 6HR MAX TEMP:  38; 6HR PCP: TRACE;

BROOKINGS      CLOUDY    35  34  96 SE10      29.49S FOG
WATERTOWN      CLOUDY    35  35 100 SE10      29.46F
6HR MIN TEMP:  34; 6HR MAX TEMP:  36;

HURON          CLOUDY    36  36 100 SE8       29.43S
6HR MIN TEMP:  36; 6HR MAX TEMP:  37;

SISSETON         N/A     34  34 100 S10       29.50F
ABERDEEN       CLOUDY    34  31  88 SE6       29.44F FOG
6HR MIN TEMP:  34; 6HR MAX TEMP:  35;

MITCHELL       CLOUDY    38  37  97 SE10      29.44F
PIERRE         FOG       18  17  96 W6        29.38F VSB 1/4 WCI  10
6HR MIN TEMP:  18; 6HR MAX TEMP:  22;

MOBRIDGE       FOG       25  21  85 N7        29.36F VSB 1/2 WCI  17
RAPID CITY     FAIR      27  19  72 NW7       29.37S WCI  19
6HR MIN TEMP:  25; 6HR MAX TEMP:  30;

$$

  *****  SOME WEATHER IN NEARBY STATES *****

CITY           SKY/WX    TMP DP  RH WIND       PRES   REMARKS
GLASGOW MT     CLOUDY    29  25  85 W7        29.42F WCI  22
6HR MIN TEMP:  26; 6HR MAX TEMP:  29;

GREAT FALLS MT FAIR      33  25  72 SW13      29.45S WCI  24
6HR MIN TEMP:  33; 6HR MAX TEMP:  37;

CHEYENNE WY    CLOUDY    32  21  64 NW5       29.45S
6HR MIN TEMP:  31; 6HR MAX TEMP:  36;

SCOTTSBLUFF NE FAIR      26  21  81 NW7       29.44F WCI  18
6HR MIN TEMP:  24; 6HR MAX TEMP:  30;

OMAHA NE       CLOUDY    39  36  89 E10       29.54F
6HR MIN TEMP:  37; 6HR MAX TEMP:  40; 6HR PCP: TRACE;

DES MOINES IA  FOG       37  37 100 NE5       29.60S VSB 1/4
6HR MIN TEMP:  36; 6HR MAX TEMP:  37; 6HR PCP: TRACE;

DAVENPORT IA   FOG       35  35 100 NE6       29.62F VSB 1
6HR MIN TEMP:  35; 6HR MAX TEMP:  36;

CHICAGO IL     LGT RAIN  38  37  97 NE9       29.62F FOG
6HR MIN TEMP:  38; 6HR MAX TEMP:  39; 6HR PCP:  0.16;

EAU CLAIRE WI  LGT RAIN  35  35 100 SE6       29.65S FOG
6HR MIN TEMP:  34; 6HR MAX TEMP:  36; 6HR PCP:  0.13;

LA CROSSE WI   FOG       36  35  96 CALM      29.65F VSB 1
6HR MIN TEMP:  36; 6HR MAX TEMP:  39; 6HR PCP:  0.05;

$$

  *****  SOME NATIONAL WEATHER *****

CITY           SKY/WX    TMP DP  RH WIND       PRES   REMARKS
LA GUARDIA NY  CLOUDY    41  31  67 NE8       30.00F               C1F1C2F2C3F3C4F4C5F5C6F6C7F7C8F8C9F9CaFaCbFbCcFcCdFdCe!



USA.gov is the U.S. government's official web portal to all federal, state and local government web resources and services.